www.pogodaiklimat.ru

Погода и климат >> Архив погоды >> Алжир >> Bordj Badji Mokhtar


ПОГОДА в Bordj Badji Mokhtar

  • Прогноз погоды в Bordj Badji Mokhtar
  • Монитор погоды в Bordj Badji Mokhtar
  • Климат города

АРХИВ ПОГОДЫ в Bordj Badji Mokhtar

Время (UTC), дата Ветер
(напр.,м/с)
 
Видим.   Явления Облачность Т
(С)
Тd
(С)
f
(%)
Тe
(С)
Тes
(С)
Комфортность P
(гПа)
Po
(гПа)
Тmin
(С)
Tmax
(С)
R
(мм)
R24
(мм)
S
(см)
06 8.08 Ю 7 4500 м пыль 4/3 1380 м
[Cu med, cong Ac trans]
+28.6 +18.6 55 +34 +34 очень
душно
1007.8 1008.0 +28.5
09 8.08 Ю 12 3000 м пыльный позёмок 3/0
[Ci sp]
+32.4 +20.0 48 +39 +39 очень
душно
1009.5 1010.0
12 8.08 ЮЗ 11 3000 м пыльный позёмок 6/3 1500 м
[Sc Ac trans]
+36.6 +18.5 35 +41 +41 опасность
перегрева
1008.0 1008.0
15 8.08 Ю 8 3000 м пыльный позёмок 6/3 1500 м
[Sc Ac trans]
+40.0 +14.1 22 +41 +42 опасность
перегрева
1005.3 1005.0
18 8.08 ЮЗ 6 6000 м 5/3 1500 м
[Sc Ac trans]
+39.2 +13.3 22 +39 +39 очень
жарко
1005.0 1005.0 +40.8
06 9.08 Ю 9 10 км 8/3 1380 м
[Cu med, cong Ac trans Ci sp]
+29.7 +23.6 70 +41 +41 опасность
перегрева
1008.3 1008.0 +29.6
09 9.08 Ю 8 10 км 3/0
[Ac trans Ci sp]
+33.4 +27.4 71 +53 +54 опасность
перегрева
1009.5 1010.0
12 9.08 ЮЗ 7 10 км 8/3 1380 м
[Cu med, cong Ac trans Ci sp]
+38.4 +17.8 30 +42 +44 опасность
перегрева
1009.0 1009.0
15 9.08 ЮВ 14 600 м пыльный позёмок ?/? +39.6 +17.9 28 +43 +43 опасность
перегрева
1006.1 1006.0
18 9.08 ЮВ 4 10 км {гроза, метель} 9/4 1380 м
[Cu med, cong As op]
+33.6 +17.5 38 +37 +37 очень
душно
1006.7 1007.0 +40.5
06 10.08 СВ 3 8000 м 6/4 1380 м
[Cu med, cong Ac trans]
+25.7 +21.0 75 +32 +32 очень
душно
1010.9 1011.0 +25.6
09 10.08 СВ 7 10 км 6/3 1380 м
[Cu med, cong Ac trans Ci sp]
+31.0 +18.7 48 +36 +38 очень
душно
1010.7 1011.0
12 10.08 В 12 10 км 6/3 1500 м
[Sc Ac trans Ci sp]
+36.6 +13.8 26 +37 +37 очень
жарко
1010.3 1010.0
15 10.08 В 6 10 км 8/3 1380 м
[Cu med, cong Ac trans Ci sp]
+38.0 +14.6 25 +39 +41 очень
душно
1007.9 1008.0
18 10.08 ЮВ 15 600 м пыльный позёмок ?/? +34.0 +15.2 32 +36 +36 душно 1009.3 1009.0 +40.1
06 11.08 Ю 3 4500 м пыль 6/3 1500 м
[Sc Ac trans]
+26.6 +22.9 80 +35 +35 очень
душно
1011.9 1012.0 +26.4
09 11.08 Ю 4 6000 м 3/0
[Ac trans]
+30.4 +22.4 62 +39 +47 очень
душно
1012.9 1013.0
12 11.08 ЮВ 6 7000 м 3/0
[Ci sp]
+35.6 +20.1 40 +41 +49 опасность
перегрева
1011.4 1011.0
15 11.08 Ю 5 10 км 4/3 1380 м
[Cu med, cong Ac trans Ci sp]
+37.8 +18.2 32 +42 +45 опасность
перегрева
1009.2 1009.0
18 11.08 ЮВ 6 10 км 6/4 1380 м
[Cu med, cong Ac trans Ci sp]
+38.0 +17.7 31 +41 +41 опасность
перегрева
1007.3 1007.0 +39.2
06 12.08 Ю 6 10 км 3/0
[Ac trans]
+28.5 +19.5 58 +34 +34 очень
душно
1010.9 1011.0 +28.2
09 12.08 ЮЗ 9 10 км 1/0
[Ci sp]
+33.7 +18.9 42 +39 +40 очень
душно
1011.8 1012.0
12 12.08 ЮЗ 5 10 км 1/0
[Ac trans]
+37.0 +19.4 36 +42 +52 опасность
перегрева
1010.7 1011.0
15 12.08 штиль 0 10 км 3/0
[Ac trans]
+39.0 +18.5 30 +43 +55 опасность
перегрева
1008.7 1009.0
18 12.08 Ю 2 10 км 5/5 1380 м
[Cu med, cong]
+38.7 +15.9 26 +40 +40 очень
душно
1007.1 1007.0 +40.3
06 13.08 С 9 10 км 9/4 1380 м
[Cu med, cong Ac trans]
+25.4 +20.8 76 +32 +32 очень
душно
1011.0 1011.0 +23.0 10
09 13.08 СВ 8 10 км 8/3 1500 м
[Cu med, cong As op Ci sp]
+27.2 +22.0 73 +35 +36 очень
душно
1012.1 1012.0
12 13.08 СВ 7 10 км 5/1 1500 м
[Cu med, cong As op Ci sp]
+34.0 +19.5 43 +40 +44 очень
душно
1011.8 1012.0
15 13.08 С 7 10 км 5/0
[Ac trans Ci sp]
+36.9 +16.5 30 +39 +42 очень
душно
1009.0 1009.0
18 13.08 С 8 10 км 3/0
[Ci sp]
+36.6 +15.8 29 +38 +38 очень
душно
1007.4 1007.0 +38.0
06 14.08 СЗ 6 9000 м 3/0
[Ac trans]
+27.0 +19.5 64 +33 +33 очень
душно
1008.7 1009.0 +26.5
09 14.08 С 9 4000 м пыльный позёмок 4/0
[Ac trans]
+32.2 +18.7 45 +37 +38 очень
душно
1009.2 1009.0
12 14.08 СВ 8 3000 м пыльный позёмок 3/0
[Ac trans]
+39.0 +13.0 21 +39 +42 очень
жарко
1008.4 1008.0
15 14.08 СВ 4 10 км 4/3 1380 м
[Cu med, cong Ac trans]
+41.2 +12.3 18 +41 +45 опасность
перегрева
1006.6 1007.0
18 14.08 С 7 10 км 4/3 1380 м
[Cu med, cong Ac trans]
+40.6 +6.9 13 +38 +38 очень
жарко
1005.1 1005.0 +42.1

 

Местоположение метеостанции Bordj Badji Mokhtar (Алжир): широта 21.33 долгота 0.95 высота над уровнем моря 399 м.

В архиве по умолчанию представлена погода в Bordj Badji Mokhtar за последнюю неделю. Архивные данные за месяц целиком и за предыдущие месяцы, начиная с января 2011 года, Вы можете получить, выбрав интересующий диапазон дат из раскрывающегося списка и нажав кнопку "Ввод!".


*Определитесь, кто Вы:
робот инопланетянин человек

Внимание! Время в таблицах - всемирное. Для получения местного времени необходимо прибавить поправку, которая в Bordj Badji Mokhtar равна 1 ч.

Смотрите также архив погоды в соседних городах и на ближайших метеорологических станциях:

Погода в In Ziza (Алжир) (288 км)
Погода в Abankor (Алжир) (414 км)
Погода в Anesbaraka (Алжир) (440 км)
Погода в Tamanrasset (Алжир) (490 км)
Погода в Arak (Алжир) (523 км)
Погода в Assekrem (Алжир) (528 км)
Погода в Moulay Lachen (Алжир) (537 км)
Погода в In Guezzam (Алжир) (537 км)
Погода в In Guezzam (Алжир) (537 км)
Погода в Mertouek (Алжир) (572 км)

Пояснения к столбцам:

Ветер - указаны скорость ветра в м/с - средняя за 10 мин, порывы в срок и между сроками (в фигурных скобках) и направление, откуда дует ветер: С - северный, СВ - северо-восточный, В - восточный, ЮВ - юго-восточный, Ю - южный, ЮЗ - юго-западный, З - западный, СЗ - северо-западный.
Видимость - горизонтальная дальность видимости в метрах или километрах. При видимости от 1 до 10 км при отсутствии осадков обычно наблюдается дымка, при ухудшении видимости до 1 км и менее - туман. В сухую погоду видимость может ухудшаться дымом, пылью или мглою.
Явления - указаны атмосферные явления, наблюдавшиеся в срок или в последний час перед сроком; фигурными скобками обозначены явления, наблюдавшиеся между сроками (за 1-3 часа до срока); квадратными скобками обозначены град или гололедные отложения с указанием их диаметра в мм.
Облачность - указаны через наклонную черту общая и нижняя облачность в баллах и высота нижней границы облаков в метрах; квадратными скобками обозначены формы облаков: Ci - перистые, Cs - перисто-слоистые, Cc - перисто-кучевые, Ac - высококучевые, As - высокослоистые, Sc - слоисто-кучевые, Ns - слоисто-дождевые, Cu - кучевые, Cb - кучево-дождевые. Подробнее классификацию облаков см. в Атласе облаков (PDF).
T - Температура воздуха - температура, измеренная на высоте 2 м над землей.
Td - Температура точки росы - температура, при понижении до которой содержащийся в воздухе водяной пар достигнет насыщения.
f - Относительная влажность воздуха - влажноcть воздуха, измеренная на высоте 2 м над землей.
Te - Эффективная температура - температура, которую ощущает одетый по сезону человек в тени. Характеристика душности погоды. При расчете учитывается влияние влажности воздуха и скорости ветра на теплоощущения человека.
Tes - Эффективная температура на солнце - температура, которую ощущает человек, с поправкой на солнечный нагрев. Характеристика знойности погоды. Зависит от высоты солнца над горизонтом, облачности и скорости ветра. Ночью, в пасмурную погоду, а также при ветре 12 м/с и более поправка равна нулю.
P - Атмосферное давление - приведенное к уровню моря атмосферное давление.
Po - Атмосферное давление - измеренное на уровне метеостанции атмосферное давление.
Tmin - Минимальная температура - минимум температуры воздуха на высоте 2 м над землей.
Tmax - Максимальная температура - максимум температуры воздуха на высоте 2 м над землей.
R - Количество осадков - Количество выпавших осадков за период времени, мм. При наведении курсора мыши на число - период времени, за который выпало указанное количество осадков.
R24 - Количество осадков - Количество выпавших осадков за 24 часа, мм.
S - Снежный покров - Высота снежного покрова, см. При наведении курсора мыши на число - состояние снежного покрова и степень покрытия местности в баллах.